Hourly Data Report for October 11, 2016

All times are specified in Local Standard Time (LST). Add 1 hour to adjust for Daylight Saving Time where and when it is observed.

CHARLOTTETOWN A
PRINCE EDWARD ISLAND

46°17'21.000" N
63°07'09.000" W
48.50 m
8300301
71706
YYG

Download Data

Hourly Data (October 2016)
Hourly Data Report for October 11, 2016
Temp Definition
°C
Dew Point Temp Definition
°C
Rel Hum Definition
%
Wind Dir Definition
10's deg

Wind Spd Definition
km/h
Visibility Definition
km
Stn Press Definition
kPa
Hmdx Definition


Wind Chill Definition


Weather Definition


TIME
00:00 Legend Double Dagger 7.6 3.5 75 35 34 19.3 100.95     LegendNANA
01:00 Legend Double Dagger 7.2 3.1 75 34 35 24.1 101.10     LegendNANA
02:00 Legend Double Dagger 7.0 2.7 74 34 23 19.3 101.24     Drizzle
03:00 Legend Double Dagger 6.8 2.1 72 34 28 24.1 101.35     LegendNANA
04:00 Legend Double Dagger 6.5 1.6 71 36 22 24.1 101.50     LegendNANA
05:00 Legend Double Dagger 6.4 1.5 71 35 22 24.1 101.60     Cloudy
06:00 Legend Double Dagger 6.4 1.1 69 35 23 24.1 101.70     LegendNANA
07:00 Legend Double Dagger 6.3 1.1 69 35 22 24.1 101.80     LegendNANA
08:00 Legend Double Dagger 6.8 1.1 67 34 20 24.1 101.89     Mostly Cloudy
09:00 Legend Double Dagger 7.6 1.0 63 35 27 24.1 101.97     LegendNANA
10:00 Legend Double Dagger 7.9 1.3 63 34 23 24.1 102.11     LegendNANA
11:00 Legend Double Dagger 8.9 1.6 60 1 23 24.1 102.11     Mainly Clear
12:00 Legend Double Dagger 8.8 1.5 60 36 18 24.1 102.14     LegendNANA
13:00 Legend Double Dagger 9.4 2.5 62 34 15 24.1 102.16     LegendNANA
14:00 Legend Double Dagger 9.5 2.4 61 33 14 24.1 102.15     Mainly Clear
15:00 Legend Double Dagger 9.2 2.8 64 33 14 24.1 102.15     LegendNANA
16:00 Legend Double Dagger 9.1 2.5 63 1 8 24.1 102.17     LegendNANA
17:00 Legend Double Dagger 8.2 2.5 67 3 4 24.1 102.23     Clear
18:00 Legend Double Dagger 5.5 2.2 79 36 3 24.1 102.24     LegendNANA
19:00 Legend Double Dagger 6.2 3.7 84 17 6 24.1 102.28     LegendNANA
20:00 Legend Double Dagger 3.9 1.5 84 15 4 24.1 102.31     Clear
21:00 Legend Double Dagger 5.5 3.5 87 14 7 24.1 102.30     LegendNANA
22:00 Legend Double Dagger 5.0 3.2 88 14 6 24.1 102.33     LegendNANA
23:00 Legend Double Dagger 5.7 4.2 90 19 11 24.1 102.33     Clear

Notes on Data Quality.

Legend

  • E = Estimated
  • M = Missing
  • NA = Not Available
  • ‡ = Partner data that is not subject to review by the National Climate Archives
Date modified: